Tracking 22882 objects as of 18-Apr-2021
HD Live streaming from Space Station
objects crossing your sky now

COSMOS 400

Track COSMOS 400 now!
10-day predictions
COSMOS 400 is classified as:


NORAD ID: 5050
Int'l Code: 1971-020A
Perigee: 989.0 km
Apogee: 1,009.0 km
Inclination: 65.8 °
Period: 104.9 minutes
Semi major axis: 7370 km
RCS: 1.4626 m2 (large)
Launch date: March 18, 1971
Source: Commonwealth of Independent States (former USSR) (CIS)
Launch site: PLESETSK MISSILE AND SPACE COMPLEX (PKMTR)
aabbcc
Your satellite tracking list
Your tracking list is empty




NASA's NSSDC Master Catalog

Two Line Element Set (TLE):
1 05050U 71020A   21107.90834615 -.00000077  00000-0  37588-5 0  9998
2 05050  65.8235 151.7402 0013601 296.9590 234.8159 13.72144810509144
Source of the keplerian elements: AFSPC